Flag Weather past 2 weeks in Bad Oldesloe, Schleswig-Holstein, Germany

Now
46 °F

Passing clouds.


Feels Like: 44 °F
Forecast: 44 / 50 °F
Wind: 6 mph from Southeast

Location: Luebeck-Blankensee

Current Time: Nov 23, 2014 at 4:05:36 PM

Latest Report: Nov 23, 2014 at 3:20 PM


Visibility: N/A

Pressure: 30.09 "Hg

Humidity: 87%

Dew point: 43 °F

Location of Bad OldesloeLocation

Historic Weather in Bad Oldesloe — Graph

°F

Bad Oldesloe temperature yesterday

Maximum temperature yesterday: 45 °F (at 12:50 PM)
Minimum temperature yesterday: 37 °F (at 7:20 AM)
Average temperature yesterday: 42 °F

Past Weeks' High & Low Weather Summary

 TemperatureHumidityPressure
High54 °F (Nov 8, 2:20 PM)100% (Nov 10, 7:50 AM)30.39 "Hg (Nov 10, 7:50 AM)
Low34 °F (Nov 21, 6:50 AM)66% (Nov 20, 1:20 PM)29.59 "Hg (Nov 16, 12:50 PM)
Average46 °F92%29.95 "Hg
* Reported Nov 8 2:20 PM — Nov 23 2:50 PM, Bad Oldesloe, Weather by CustomWeather, © 2014

Note: Actual official high and low records may vary slightly from our data, if they occured in-between our weather recording intervals... More about our weather records

Advertising

Bad Oldesloe weather history for previous 24 hours

 ConditionsComfort  
Time TempWeatherWind HumidityBarometerVisibility
2:50 PM
Nov 23
46 °FSunny.6 mph82%30.09 "Hg10 mi
2:20 PM46 °FPassing clouds.8 mph82%30.09 "HgN/A
1:50 PM46 °FPassing clouds.7 mph82%30.12 "HgN/A
1:20 PM45 °FPassing clouds.8 mph87%30.12 "HgN/A
12:50 PM45 °FPassing clouds.7 mph81%30.12 "HgN/A
12:20 PM43 °FPassing clouds.7 mph87%30.15 "HgN/A
11:50 AM43 °FPassing clouds.6 mph87%30.15 "HgN/A
11:20 AM43 °FPartly sunny.5 mph87%30.18 "Hg6 mi
10:50 AM43 °FPartly sunny.8 mph87%30.15 "HgN/A
10:20 AM41 °FBroken clouds.7 mph93%30.15 "Hg6 mi
9:50 AM41 °FBroken clouds.6 mph87%30.15 "Hg5 mi
9:20 AM41 °FScattered clouds.3 mph87%30.18 "HgN/A
8:50 AM39 °FLight rain. Partly sunny.12 mph93%30.12 "Hg6 mi
8:20 AM39 °FBroken clouds.8 mph93%30.18 "Hg6 mi
7:50 AM39 °FPassing clouds.7 mph93%30.15 "Hg5 mi
7:20 AM39 °FPartly cloudy.8 mph93%30.15 "Hg5 mi
6:50 AM39 °FPartly cloudy.7 mph93%30.15 "Hg6 mi
9:50 PM
Nov 22
41 °FClear.9 mph87%30.18 "Hg10 mi
9:20 PM41 °FPassing clouds.9 mph87%30.18 "HgN/A
8:50 PM41 °FPassing clouds.9 mph87%30.18 "HgN/A
8:20 PM41 °FPassing clouds.10 mph87%30.18 "HgN/A
7:50 PM41 °FLight rain. Passing clouds.8 mph93%30.18 "HgN/A
7:20 PM41 °FLight rain. Passing clouds.8 mph93%30.18 "HgN/A
6:50 PM41 °FLight rain. Passing clouds.8 mph93%30.18 "Hg6 mi
6:20 PM41 °FLight rain. Clear.7 mph93%30.18 "Hg5 mi
5:50 PM41 °FLight rain. Partly cloudy.8 mph93%30.18 "Hg4 mi
5:20 PM41 °FRain. Partly cloudy.5 mph93%30.21 "Hg3 mi
4:50 PM43 °FLight rain. Partly cloudy.6 mph87%30.21 "HgN/A
4:20 PM43 °FPartly cloudy.7 mph81%30.18 "HgN/A
Weather by CustomWeather, © 2014

See weather overviewHow to use our weather pages